Location: Baia Mare
(47.6567°N, 23.5850°E)
Time: 16:54:11
(UTC+03:00)

ISS - Pass Details

Date: 11 July 2018
Orbit: 402 x 408 km, 51.6° (Epoch: 23 July)

Event Time Altitude Azimuth Distance (km) Brightness Sun altitude
Exits shadow 03:05:45 53° 202° (SSW) 509 -3.8 -17.0°
Maximum altitude 03:06:18 64° 152° (SSE) 454 -3.8 -17.0°
Drops below altitude 10° 03:09:34 10° 70° (ENE) 1,474 -0.4 -16.8°
Sets 03:11:40 0° 67° (ENE) 2,338 0.8 -16.6°
